Regional Weather Roundup
Issued by NWS

Home | Current Version | Previous Version | Graphics & Text | Print | Product List | Glossary On
Versions: 1 2 3 4 5 6 7 8 9 10 11 12 13 14 15 16 17 18 19 20 21 22 23 24 25 26 27 28 29 30 31 32 33 34 35 36 37 38 39 40 41 42 43 44 45 46 47 48 49 50
000
ASUS45 KTFX 201719
RWRMT
MONTANA HOURLY WEATHER ROUNDUP
NATIONAL WEATHER SERVICE GREAT FALLS MT
1119 AM MDT MON OCT 20 2014

NOTE: "FAIR" INDICATES FEW OR NO CLOUDS BELOW 12000 FEET WITH NO
SIGNIFICANT WEATHER AND/OR OBSTRUCTIONS TO VISIBILITY.

* THESE STATIONS ARE NOT UNDER NWS QUALITY CONTROL. THEY DO NOT
   REPORT WEATHER SUCH AS PRECIPITATION OR FOG.

MTZ001>007-043-201800-
WEST OF THE DIVIDE
CITY           SKY/WX    TMP DP  RH WIND       PRES   REMARKS
KALISPELL      SUNNY     50  41  71 NE5       29.86F
MISSOULA       SUNNY     45  39  80 W3        29.92F
BUTTE          SUNNY     52  28  40 CALM      30.02F
MULLAN PASS    SUNNY     55  34  45 VRB6      29.91S
* ESSEX        N/A       41  33  73 NE2        N/A
* LINCOLN      N/A       36  30  79 SE1        N/A
* LOOKOUT PASS N/A       44  42  93 SE4        N/A
* POLSON       N/A       48  46  93 NE2        N/A
* RONAN APT    SUNNY     48  46  93 N/A        N/A
* SEELEY LAKE  N/A       42  36  79 S1         N/A
* THOMP F APT  SUNNY     60  30  32 S2G7       N/A
$$

MTZ008-052>055-201800-
SOUTHWEST MONTANA
CITY           SKY/WX    TMP DP  RH WIND       PRES   REMARKS
BOZEMAN        SUNNY     54  37  53 N3        30.00S
DILLON         SUNNY     55  27  34 S7        30.02F
W YELLOWSTONE  SUNNY     43  25  49 CALM      30.16F
* THREE FORKS  SUNNY     46  27  48 N/A        N/A
* BOULDER HILL N/A       51  26  38 SW13       N/A
* MONIDA PASS  N/A       53  29  40 SE9        N/A
* RAYNOLDS PAS N/A       49  34  56 S14        N/A
* WHITEHALL    N/A       49  33  54 S3         N/A
* WISE RIVER   N/A       35  28  76 W3         N/A
$$

MTZ009>010-012-014-046-048-049-054-201800-
EAST SLOPES AND CENTRAL MONTANA
CITY           SKY/WX    TMP DP  RH WIND       PRES   REMARKS
CUT BANK       SUNNY     63  34  34 SE6       29.81F
GREAT FALLS    SUNNY     68  30  24 S16       29.85F
HELENA         SUNNY     52  36  55 CALM      29.95F
MALMSTROM AFB  SUNNY     70  32  25 SW13      29.86F
* CONRAD       SUNNY     64  34  33 S14        N/A
* DEARBORN     N/A       57  33  40 NE1        N/A
* EAST GLACIER N/A       65  28  25 W17G31     N/A
* MONARCH      N/A       61  29  30 S10        N/A
* PENDROY      N/A       62  36  38 SW7        N/A
* ROGERS PASS  N/A       57  27  32 SE8G13     N/A
* SAINT MARY   N/A       66  30  26 S6G14      N/A
* SWEET GRASS  N/A       54  31  42 S11        N/A
* WHITE SULPH  N/A       65  26  23 S10G15     N/A
$$

MTZ011-013-016-021-035-040-045-047-050-051-201800-
NORTH CENTRAL MONTANA
CITY           SKY/WX    TMP DP  RH WIND       PRES   REMARKS
HAVRE          SUNNY     54  41  62 CALM      29.83F
LEWISTOWN      SUNNY     68  32  26 CALM      29.92S
* CHINOOK      SUNNY     52  41  66 CALM      29.83F
* FORT BENTON  SUNNY     57  36  46 CALM      29.84F
* CHESTER      N/A       51  35  54 N/A        N/A
* DENTON       N/A       67  37  33 SE8        N/A
* GEYSER       N/A       72  36  27 SW11       N/A
* JUDITH GAP   N/A       68  33  27 SW18       N/A
* LOMA         N/A       52  38  59 E5         N/A
$$

MTZ017>020-022>027-061-062-201800-
NORTHEAST MONTANA
CITY           SKY/WX    TMP DP  RH WIND       PRES   REMARKS
GLASGOW        SUNNY     57  41  55 SE12      29.86S
GLENDIVE       SUNNY     61  41  48 S12       29.94F
JORDAN         SUNNY     66  39  37 SW10      29.87F
SIDNEY         SUNNY     63  43  48 S5        29.93F
WOLF POINT     SUNNY     57  41  55 E6        29.89F
* BEAVER HILL  N/A       65  40  40 SE16G22    N/A
* CIRCLE       N/A       65  45  49 S8         N/A
* LINDSAY DVD  N/A       59  39  48 SE10       N/A
* NAVAJO       N/A       59  40  50 S11        N/A
* SACO         N/A       54  44  69 NE6        N/A
$$

MTZ028>042-056>058-201800-
SOUTHCENTRAL AND SOUTHEAST MONTANA
CITY           SKY/WX    TMP DP  RH WIND       PRES   REMARKS
BAKER          SUNNY     64  41  43 SE16      29.97F
BILLINGS       SUNNY     57  32  39 SW14      29.94F
LIVINGSTON     SUNNY     63  30  29 CALM      29.97F
MILES CITY     SUNNY     57  39  51 S6        29.93S
* LAUREL APT   SUNNY     57  28  33 SW8        N/A
* ROUNDUP APT  SUNNY     54  32  43 S11G16     N/A
* ALZADA       N/A       62  41  46 E6         N/A
* HYSHAM       N/A       62  32  32 W9         N/A
* LAME DEER    N/A       69  38  32 SE1        N/A
* REED POINT   N/A       49  34  56 N/A        N/A
* ROSCOE HILL  N/A       66  24  20 VRB4G9     N/A
$$

REGIONAL REPORTS...DAKOTAS
CITY           SKY/WX    TMP DP  RH WIND       PRES   REMARKS
WILLISTON      SUNNY     63  39  41 SE12      29.93F
DICKINSON      SUNNY     64  41  43 S22G30    29.97F
BEACH          N/A       61  39  44 S20       29.96F
CROSBY         SUNNY     64  39  40 S18G25    29.92F
TIOGA          SUNNY     63  39  41 S18G23    29.98F
BISMARCK       SUNNY     61  43  52 S5        30.06F
GRAND FORKS    SUNNY     52  41  66 VRB3      30.08F
FARGO          SUNNY     55  43  64 N3        30.07S
BUFFALO SD     SUNNY     63  41  45 SE15      29.94S
RAPID CITY     SUNNY     63  45  52 E10       30.02F
$$

REGIONAL REPORTS...WYOMING/IDAHO/WASHINGTON
CITY           SKY/WX    TMP DP  RH WIND       PRES   REMARKS
GILLETTE       SUNNY     64  39  40 SE9       30.02S
SHERIDAN       SUNNY     59  32  36 N3        29.97F
CODY           SUNNY    N/A N/A N/A N3        30.02F
YELLOWSTONE LA SUNNY     45  32  60 CALM      30.23F
MULLAN PASS    SUNNY     55  34  45 VRB6      29.91S
SAND POINT     SUNNY     50  50 100 NE5       29.81F
SPOKANE        PTCLDY    57  43  60 SE6       29.77S
$$

REGIONAL REPORTS...ALBERTA
CITY           SKY/WX    TMP DP  RH WIND       PRES   REMARKS
CALGARY        PTCLDY    59  36  42 S8        29.68F
LETHBRIDGE     SUNNY     70  36  29 S15G24    29.73F
MEDICINE HAT   N/A       66  37  34 SW16G23   29.72F
EDMONTON       PTSUNNY   61  39  44 S6        29.57F
WATERTON GATE  N/A       66  30  26 SW23G36    N/A
CARDSTON       N/A       66  37  34 NE5        N/A
MILK RIVER     N/A       63  36  37 S6         N/A
$$

REGIONAL REPORTS...SASKATCHEWAN
CITY           SKY/WX    TMP DP  RH WIND       PRES   REMARKS
SWIFT CURRENT  SUNNY     66  36  33 S20G25    29.76F
MOOSE JAW      SUNNY     63  45  52 S17       29.81F
REGINA         SUNNY     59  43  56 S10       29.84F
VAL MARIE      N/A       57  43  60 S7         N/A
ASSINIBOIA     N/A       61  39  44 S7         N/A
CORONACH       N/A       59  39  48 S14        N/A

$$



USA.gov is the U.S. government's official web portal to all federal, state and local government web resources and services.